• Em Portugal
  • Lista de países
  • Para 7 dias
  • Temperatura da água
  • Mapas de satélite
  • Mapa do tempo
  • Widgets de tempo
  • user-avatar
    Iniciar Sessão

    Previsão horária em Tibissa

    Hoje, 18 Fevereiro, Domingo

    Tempo Temperatura Precipitação Vento Pressão Humidade
    00:00 +9°C° 0,6 mm 2 m/s 685 mmHg 87%
    01:00 +9°C° 0,6 mm 3 m/s 685 mmHg 89%
    02:00 +9°C° 0,6 mm 3 m/s 685 mmHg 90%
    03:00 +9°C° 0,6 mm 2 m/s 685 mmHg 90%
    04:00 +8°C° 0,6 mm 2 m/s 684 mmHg 91%
    05:00 +8°C° 0,3 mm 3 m/s 684 mmHg 90%
    06:00 +8°C° 0,3 mm 3 m/s 684 mmHg 89%
    07:00 +8°C° 0,3 mm 3 m/s 684 mmHg 89%
    08:00 +9°C° 0,2 mm 3 m/s 684 mmHg 86%
    09:00 +9°C° 0,2 mm 3 m/s 684 mmHg 82%
    10:00 +8°C° 0,2 mm 4 m/s 685 mmHg 79%
    11:00 +10°C° 0,1 mm 4 m/s 684 mmHg 75%
    12:00 +11°C° 0,1 mm 4 m/s 684 mmHg 71%
    13:00 +12°C° 0,1 mm 4 m/s 684 mmHg 68%
    14:00 +12°C° 0,1 mm 4 m/s 684 mmHg 67%
    15:00 +12°C° 0,1 mm 4 m/s 684 mmHg 66%
    16:00 +12°C° 0,1 mm 4 m/s 684 mmHg 66%
    17:00 +11°C° 0,4 mm 4 m/s 684 mmHg 71%
    18:00 +10°C° 0,4 mm 4 m/s 684 mmHg 77%
    19:00 +8°C° 0,4 mm 4 m/s 684 mmHg 82%
    20:00 +8°C° 0,7 mm 4 m/s 684 mmHg 83%
    21:00 +7°C° 0,7 mm 4 m/s 684 mmHg 85%
    22:00 +7°C° 0,7 mm 4 m/s 684 mmHg 86%
    23:00 +6°C° 0,5 mm 4 m/s 684 mmHg 86%

    Amanhã, 19 Fevereiro, Segunda-feira

    Tempo Temperatura Precipitação Vento Pressão Humidade
    00:00 +7°C° 0,5 mm 3 m/s 684 mmHg 86%
    01:00 +5°C° 0,5 mm 3 m/s 684 mmHg 85%
    02:00 +6°C° 0,1 mm 2 m/s 684 mmHg 86%
    03:00 +6°C° 0,1 mm 2 m/s 683 mmHg 87%
    04:00 +5°C° 0,1 mm 2 m/s 683 mmHg 87%
    05:00 +5°C° 0 mm 2 m/s 683 mmHg 87%
    06:00 +6°C° 0 mm 1 m/s 683 mmHg 86%
    07:00 +6°C° 0 mm 1 m/s 683 mmHg 86%
    08:00 +7°C° 0 mm 1 m/s 683 mmHg 81%
    09:00 +8°C° 0 mm 1 m/s 683 mmHg 75%
    10:00 +8°C° 0 mm 1 m/s 684 mmHg 70%
    11:00 +8°C° 0,1 mm 2 m/s 684 mmHg 68%
    12:00 +8°C° 0,1 mm 2 m/s 683 mmHg 66%
    13:00 +9°C° 0,1 mm 2 m/s 683 mmHg 64%
    14:00 +9°C° 0,2 mm 2 m/s 683 mmHg 66%
    15:00 +9°C° 0,2 mm 2 m/s 682 mmHg 67%
    16:00 +9°C° 0,2 mm 2 m/s 682 mmHg 69%
    17:00 +8°C° 0,3 mm 2 m/s 682 mmHg 71%
    18:00 +8°C° 0,3 mm 2 m/s 682 mmHg 73%
    19:00 +8°C° 0,3 mm 1 m/s 682 mmHg 75%
    20:00 +8°C° 0,2 mm 1 m/s 682 mmHg 77%
    21:00 +8°C° 0,2 mm 1 m/s 682 mmHg 78%
    22:00 +7°C° 0,2 mm 1 m/s 682 mmHg 80%
    23:00 +7°C° 0 mm 1 m/s 682 mmHg 82%

    Depois de amanhã, 20 Fevereiro, Terça-feira

    Tempo Temperatura Precipitação Vento Pressão Humidade
    00:00 +7°C° 0 mm 1 m/s 682 mmHg 84%
    01:00 +6°C° 0 mm 1 m/s 681 mmHg 86%
    02:00 +6°C° 0,1 mm 1 m/s 681 mmHg 85%
    03:00 +6°C° 0,1 mm 1 m/s 681 mmHg 85%
    04:00 +6°C° 0,1 mm 1 m/s 680 mmHg 85%
    05:00 +6°C° 0,3 mm 1 m/s 680 mmHg 85%
    06:00 +6°C° 0,3 mm 1 m/s 680 mmHg 85%
    07:00 +6°C° 0,3 mm 1 m/s 680 mmHg 85%
    08:00 +5°C° 0,7 mm 2 m/s 680 mmHg 82%
    09:00 +5°C° 0,7 mm 2 m/s 680 mmHg 80%
    10:00 +5°C° 0,7 mm 2 m/s 681 mmHg 77%
    11:00 +6°C° 0,7 mm 2 m/s 680 mmHg 72%
    12:00 +6°C° 0,7 mm 2 m/s 680 mmHg 68%
    13:00 +6°C° 0,7 mm 2 m/s 680 mmHg 64%
    14:00 +7°C° 0,2 mm 3 m/s 679 mmHg 62%
    15:00 +7°C° 0,2 mm 3 m/s 679 mmHg 60%
    16:00 +8°C° 0,2 mm 3 m/s 679 mmHg 58%
    17:00 +6°C° 0,1 mm 4 m/s 679 mmHg 63%
    18:00 +5°C° 0,1 mm 4 m/s 678 mmHg 68%
    19:00 +5°C° 0,1 mm 4 m/s 678 mmHg 73%
    20:00 +4°C° 0,1 mm 4 m/s 679 mmHg 76%
    21:00 +3°C° 0,1 mm 5 m/s 679 mmHg 79%
    22:00 +2°C° 0,1 mm 6 m/s 679 mmHg 82%
    23:00 +2°C° 0 mm 5 m/s 679 mmHg 81%

    21 Fevereiro, Quarta-feira

    Tempo Temperatura Precipitação Vento Pressão Humidade
    00:00 +1°C° 0 mm 5 m/s 678 mmHg 80%
    01:00 +1°C° 0 mm 5 m/s 678 mmHg 78%
    02:00 +1°C° 0 mm 4 m/s 677 mmHg 79%
    03:00 0°C° 0 mm 4 m/s 677 mmHg 79%
    04:00 +1°C° 0 mm 3 m/s 676 mmHg 79%
    05:00 0°C° 0 mm 4 m/s 676 mmHg 79%
    06:00 0°C° 0 mm 4 m/s 676 mmHg 78%
    07:00 0°C° 0 mm 4 m/s 676 mmHg 77%
    08:00 +2°C° 0 mm 5 m/s 676 mmHg 72%
    09:00 +3°C° 0 mm 6 m/s 677 mmHg 66%
    10:00 +5°C° 0 mm 7 m/s 677 mmHg 61%
    11:00 +6°C° 0 mm 7 m/s 677 mmHg 57%
    12:00 +8°C° 0 mm 7 m/s 677 mmHg 54%
    13:00 +9°C° 0 mm 8 m/s 676 mmHg 50%
    14:00 +9°C° 0,1 mm 7 m/s 676 mmHg 52%
    15:00 +9°C° 0,1 mm 7 m/s 676 mmHg 54%
    16:00 +9°C° 0,1 mm 7 m/s 675 mmHg 55%
    17:00 +8°C° 0,1 mm 6 m/s 675 mmHg 60%
    18:00 +7°C° 0,1 mm 4 m/s 675 mmHg 64%
    19:00 +7°C° 0,1 mm 3 m/s 675 mmHg 68%
    20:00 +7°C° 0,2 mm 3 m/s 675 mmHg 70%
    21:00 +7°C° 0,2 mm 2 m/s 675 mmHg 72%
    22:00 +6°C° 0,2 mm 2 m/s 676 mmHg 74%
    23:00 +6°C° 0,2 mm 2 m/s 675 mmHg 75%

    22 Fevereiro, Quinta-feira

    Tempo Temperatura Precipitação Vento Pressão Humidade
    00:00 +6°C° 0,2 mm 2 m/s 675 mmHg 76%
    01:00 +6°C° 0,2 mm 2 m/s 674 mmHg 76%
    02:00 +5°C° 0,1 mm 3 m/s 674 mmHg 76%
    03:00 +4°C° 0,1 mm 3 m/s 674 mmHg 76%
    04:00 +4°C° 0,1 mm 3 m/s 673 mmHg 75%
    05:00 +4°C° 0 mm 3 m/s 673 mmHg 76%
    06:00 +5°C° 0 mm 2 m/s 673 mmHg 77%
    07:00 +5°C° 0 mm 2 m/s 673 mmHg 78%
    08:00 +5°C° 0,1 mm 3 m/s 673 mmHg 72%
    09:00 +6°C° 0,1 mm 4 m/s 673 mmHg 67%
    10:00 +7°C° 0,1 mm 4 m/s 673 mmHg 61%
    11:00 +7°C° 0,3 mm 5 m/s 673 mmHg 58%
    12:00 +8°C° 0,3 mm 6 m/s 673 mmHg 56%
    13:00 +9°C° 0,3 mm 7 m/s 673 mmHg 53%
    14:00 +8°C° 0,5 mm 6 m/s 672 mmHg 55%
    15:00 +8°C° 0,5 mm 6 m/s 672 mmHg 57%
    16:00 +8°C° 0,5 mm 5 m/s 672 mmHg 59%
    17:00 +7°C° 0,3 mm 4 m/s 672 mmHg 63%
    18:00 +6°C° 0,3 mm 4 m/s 672 mmHg 66%
    19:00 +7°C° 0,3 mm 3 m/s 673 mmHg 70%
    20:00 +5°C° 0,1 mm 3 m/s 673 mmHg 71%
    21:00 +5°C° 0,1 mm 3 m/s 673 mmHg 72%
    22:00 +5°C° 0,1 mm 3 m/s 673 mmHg 74%
    23:00 +4°C° 0 mm 3 m/s 673 mmHg 73%

    23 Fevereiro, Sexta-feira

    Tempo Temperatura Precipitação Vento Pressão Humidade
    00:00 +4°C° 0 mm 4 m/s 673 mmHg 73%
    01:00 +4°C° 0 mm 4 m/s 673 mmHg 72%
    02:00 +4°C° 0 mm 4 m/s 673 mmHg 71%
    03:00 +3°C° 0 mm 4 m/s 672 mmHg 70%
    04:00 +2°C° 0 mm 5 m/s 672 mmHg 68%
    05:00 +3°C° 0 mm 4 m/s 673 mmHg 68%
    06:00 +1°C° 0 mm 4 m/s 673 mmHg 68%
    07:00 +1°C° 0 mm 4 m/s 673 mmHg 69%
    08:00 +3°C° 0 mm 4 m/s 674 mmHg 60%
    09:00 +5°C° 0 mm 5 m/s 674 mmHg 52%
    10:00 +5°C° 0 mm 6 m/s 675 mmHg 43%
    11:00 +7°C° 0 mm 6 m/s 675 mmHg 40%
    12:00 +8°C° 0 mm 6 m/s 676 mmHg 36%
    13:00 +9°C° 0 mm 6 m/s 676 mmHg 32%
    14:00 +10°C° 0 mm 5 m/s 676 mmHg 31%
    15:00 +10°C° 0 mm 5 m/s 676 mmHg 30%
    16:00 +11°C° 0 mm 4 m/s 676 mmHg 29%
    17:00 +10°C° 0 mm 3 m/s 676 mmHg 35%
    18:00 +9°C° 0 mm 3 m/s 676 mmHg 42%
    19:00 +8°C° 0 mm 2 m/s 676 mmHg 48%
    20:00 +7°C° 0 mm 2 m/s 676 mmHg 52%
    21:00 +7°C° 0 mm 1 m/s 676 mmHg 57%
    22:00 +7°C° 0 mm 1 m/s 677 mmHg 62%
    23:00 +6°C° 0 mm 1 m/s 677 mmHg 63%
    Mostrar mais